Zurück zum Katalog

ESSAIM-3

AktivMilitärPO
NORAD 28496·PAYLOAD·🇫🇷 France

Gestartet Dec 18, 2004 von Guiana Space Centre

Loading…

Nächste Überflüge (nächste 24 Stunden)

TLE

AktuellSource: Space-Track

Epoche: Sep 14, 2026, 13:38 UTC

1 28496U 04049E   26257.56820208  .00001607  00000-0  14568-3 0  9990
2 28496  98.2298 199.0658 0001060  11.0343 349.0900 14.96883092176094

Verfolge ESSAIM-3 in Echtzeit mit AllMySat

Download on the App Store